Regional Weather Roundup
Issued by NWS

Home | Current Version | Previous Version | Graphics & Text | Print | Product List | Glossary On
Versions: 1 2 3 4 5 6 7 8 9 10 11 12 13 14 15 16 17 18 19 20 21 22 23 24 25 26 27 28 29 30 31 32 33 34 35 36 37 38 39 40 41 42 43 44 45 46 47 48 49 50
277
ASUS44 KLIX 292210
RWRLA
LOUISIANA WEATHER ROUNDUP
NATIONAL WEATHER SERVICE NEW ORLEANS LA
500 PM CDT MON SEP 29 2014

NOTE: "FAIR" INDICATES FEW OR NO CLOUDS BELOW 12,000 FEET WITH NO
      SIGNIFICANT WEATHER AND/OR OBSTRUCTIONS TO VISIBILITY.
      SKY/WX - SKY CONDITION AND SIGNIFICANT WEATHER.
      TMP - AIR TEMPERATURE.    DP   - DEWPOINT TEMPERATURE.
      RH  - RELATIVE HUMIDITY.  PRES - PRESSURE.
      HX  - HEAT INDEX.         WCI  - WIND CHILL INDEX.

*  THESE STATIONS ARE NOT NWS OR FAA STATIONS AND ARE NOT UNDER
   NWS QUALITY CONTROL.

LAZ040-048-061>063-065-066-069-292300-
SOUTHEAST LOUISIANA

CITY           SKY/WX    TMP DP  RH WIND       PRES   REMARKS
N.O. AUDUBON     N/A     84  73  68 MISG        N/A
N.O. INTL ARPT MOSUNNY   84  69  60 N7        29.85F
N.O. LAKEFRONT MOSUNNY   81  72  74 NW7       29.86F
N.O. DOWNTOWN* FAIR      82  70  65 NE5       29.86F
SLIDELL        MOSUNNY   83  71  67 NE5       29.85F
BATON ROUGE    PTSUNNY   84  71  65 NE8       29.85F
BOOTHVILLE     MOSUNNY   82  73  74 N7        29.86F
BELLE CHASSE   MOSUNNY   85  69  58 NE6       29.84F
BOGALUSA*        N/A     86  69  56 NE6       29.87S
GALLIANO*      NOT AVBL
NEW ROADS*     CLOUDY    83  73  71 N9        29.86F
GONZALES*      CLOUDY    83  76  80 E3        29.85S
HAMMOND*       MOSUNNY   84  68  58 CALM      29.87S
HOUMA*         NOT AVBL
PORT FOURCHON* CLEAR     82  73  74 NE6G13    29.88F

$$

LAZ041-044-053-054-292300-
SOUTHWEST LOUISIANA

CITY           SKY/WX    TMP DP  RH WIND       PRES   REMARKS
LAKE CHARLES   MOSUNNY   86  71  60 NE6       29.85F
LAFAYETTE      MOSUNNY   85  73  67 NE8       29.85F
PATTERSON      MOSUNNY   79  73  83 S7        29.88S
SALT POINT       N/A     85  75  72 CALM      29.85S
NEW IBERIA     PTSUNNY   84  72  67 NE6       29.85F
CHENAULT AIRPK NOT AVBL

$$

LAZ027-028-292300-
CENTRAL LOUISIANA

CITY           SKY/WX    TMP DP  RH WIND       PRES   REMARKS
FORT POLK      CLOUDY    82  72  72 N5        29.87F
ALEXANDRIA INT CLOUDY    83  70  64 NE12      29.86F
ALEXANDRIA     CLOUDY    83  70  64 NE6       29.88F

$$

LAZ001-002-292300-
NORTHWEST LOUISIANA

CITY           SKY/WX    TMP DP  RH WIND       PRES   REMARKS
SHREVEPORT     PTSUNNY   87  66  49 NE8       29.89F
BARKSDALE AFB  SUNNY     87  64  46 NE5       29.90F
DTN SHREVEPORT CLOUDY    86  67  52 NE5       29.90F

$$

LAZ014-016-292300-
NORTHEAST LOUISIANA

CITY           SKY/WX    TMP DP  RH WIND       PRES   REMARKS
MONROE         PTSUNNY   86  65  49 N3        29.89F
TALLULAH       CLOUDY    85  67  54 NE8       29.88F

$$




USA.gov is the U.S. government's official web portal to all federal, state and local government web resources and services.